Location: Bucharest
(44.4268°N, 26.1025°E)
Time: 07:02:26
(UTC+03:00)

ESTCUBE 1 - Visible Passes

Search period start: 28 June 2022 00:00
Search period end: 08 July 2022 00:00
Orbit: 644 x 659 km, 97.9° (Epoch: 27 June)

Date Brightness Start Highest point End Pass type
(mag) Time Alt. Az. Time Alt. Az. Time Alt. Az.
28 Jun ? 00:23:22 18° WSW 00:24:58 22° W 00:28:26 10° NW visible
28 Jun ? 23:12:52 30° SSE 23:14:59 73° ENE 23:19:28 10° N visible
29 Jun ? 00:50:45 10° WSW 00:52:16 12° W 00:53:47 10° WNW visible
29 Jun ? 22:03:01 10° E 22:05:43 16° ENE 22:08:27 10° NNE visible
29 Jun ? 23:40:11 33° SSW 23:42:00 59° W 23:46:26 10° NNW visible
30 Jun ? 22:29:40 15° ESE 22:32:28 28° ENE 22:36:16 10° N visible
01 Jul ? 00:07:30 24° SW 00:09:07 31° W 00:13:06 10° NNW visible
01 Jul ? 22:56:59 25° SE 22:59:19 50° ENE 23:03:39 10° N visible
02 Jul ? 00:34:49 14° WSW 00:36:21 17° W 00:39:15 10° NW visible
02 Jul ? 21:48:40 10° E 21:50:12 12° ENE 21:51:43 10° NE visible
02 Jul ? 23:24:18 34° S 23:26:15 85° WSW 23:30:45 10° NNW visible
03 Jul ? 22:13:48 11° ESE 22:16:52 20° ENE 22:20:08 10° NNE visible
03 Jul ? 23:51:37 30° SSW 23:53:18 44° W 23:57:36 10° NNW visible
04 Jul ? 22:41:06 19° ESE 22:43:39 35° ENE 22:47:44 10° N visible
05 Jul ? 00:18:56 20° WSW 00:20:28 24° W 00:24:06 10° NW visible
05 Jul ? 23:08:25 30° SSE 23:10:31 67° ENE 23:14:59 10° N visible
06 Jul ? 00:46:15 11° WSW 00:47:44 13° W 00:49:46 10° WNW visible
06 Jul ? 21:58:49 10° E 22:01:17 15° ENE 22:03:46 10° NNE visible
06 Jul ? 23:35:44 35° S 23:37:31 65° W 23:41:59 10° NNW visible
07 Jul ? 22:25:14 14° ESE 22:28:00 26° ENE 22:31:41 10° N visible
